Weather History for Greenville, ME

Change the Weather History Date:

Wednesday, April 17, 2013

  Actual Average (KMLT) Record (KMLT)
Temperature  
Mean Temperature 40 °F 42 °F  
Max Temperature 48 °F 52 °F 79 °F (2012)
Min Temperature 32 °F 32 °F 8 °F (1930)
Degree Days  
Heating Degree Days 24 23  
Month to date heating degree days 463  
Since 1 July heating degree days 7662  
Cooling Degree Days 0 0  
Month to date cooling degree days 0  
Year to date cooling degree days 0  
Moisture  
Dew Point 25 °F    
Average Humidity 57    
Maximum Humidity 86    
Minimum Humidity 37    
Precipitation  
Precipitation 0.00 in 0.12 in 1.45 in (1983)
Month to date precipitation 2.15  
Year to date precipitation 10.32  
Sea Level Pressure  
Sea Level Pressure 30.14 in    
Wind  
Wind Speed 10 mph (NW)    
Max Wind Speed 18 mph    
Max Gust Speed 31 mph    
T = Trace of Precipitation, MM = Missing Value Source: NWS Daily Summary

Daily Weather History Graph

Daily Weather History Graph

Search for Another Location

Airport:

Trip Planner

Search our weather history database for the weather conditions in past years. The results will help you decide how hot, cold, wet, or windy it might be!

Date:

Astronomy

Apr. 17, 2013 Rise Set
Actual Time 5:49 AM EDT 7:27 PM EDT
Civil Twilight 5:18 AM EDT 7:58 PM EDT
Nautical Twilight 4:40 AM EDT 8:36 PM EDT
Astronomical Twilight 3:59 AM EDT 9:17 PM EDT
Moon 10:54 AM EDT (4/17) 1:09 AM EDT (4/17)
Length of Visible Light 14h 40m
Length of Day
13h 38m
Waxing Crescent, 42% of the Moon is Illuminated
Apr 17
Waxing Crescent
Apr 18
First Quarter
Apr 25
Full
May 2
Last Quarter
May 9
New

Hourly Weather History & Observations

Time (EDT) Temp. Windchill Dew Point Humidity Pressure Visibility Wind Dir Wind Speed Gust Speed Precip Events Conditions
12:56 AM 39.0 °F 31.8 °F 35.1 °F 86% 29.93 in - WNW 11.5 mph 31.1 mph N/A   Unknown
1:56 AM 37.0 °F 29.3 °F 30.0 °F 76% 29.93 in - NW 11.5 mph 23.0 mph N/A   Unknown
2:56 AM 37.0 °F 29.8 °F 28.9 °F 73% 29.96 in - NW 10.4 mph 28.8 mph N/A   Unknown
3:56 AM 36.0 °F 32.1 °F 28.0 °F 73% 29.99 in - Variable 4.6 mph 17.3 mph N/A   Unknown
4:56 AM 35.1 °F 31.0 °F 27.0 °F 72% 30.01 in - Variable 4.6 mph - N/A   Unknown
5:56 AM 35.1 °F 27.9 °F 27.0 °F 72% 30.02 in - WNW 9.2 mph 24.2 mph N/A   Unknown
6:56 AM 36.0 °F 29.6 °F 27.0 °F 70% 30.05 in - NW 8.1 mph 18.4 mph N/A   Unknown
7:56 AM 39.0 °F 31.4 °F 27.0 °F 62% 30.06 in - NW 12.7 mph 26.5 mph N/A   Unknown
8:56 AM 39.0 °F 31.8 °F 27.0 °F 62% 30.09 in - NW 11.5 mph 26.5 mph N/A   Unknown
9:56 AM 39.9 °F 31.8 °F 28.0 °F 63% 30.12 in - NW 15.0 mph 23.0 mph N/A   Unknown
10:56 AM 44.1 °F 39.0 °F 28.0 °F 53% 30.13 in - NW 9.2 mph 23.0 mph N/A   Unknown
11:56 AM 46.0 °F 39.0 °F 27.0 °F 47% 30.12 in - NNW 17.3 mph 27.6 mph N/A   Unknown
12:56 PM 46.0 °F 39.9 °F 26.1 °F 46% 30.13 in - NW 13.8 mph 26.5 mph N/A   Unknown
1:56 PM 46.0 °F 39.3 °F 25.0 °F 44% 30.14 in - NNW 16.1 mph 25.3 mph N/A   Unknown
2:56 PM 46.9 °F - 24.1 °F 41% 30.16 in - NW 18.4 mph 27.6 mph N/A   Unknown
3:56 PM 48.0 °F - 25.0 °F 41% 30.18 in - NW 10.4 mph 23.0 mph N/A   Unknown
4:56 PM 48.0 °F - 23.0 °F 37% 30.21 in - NW 12.7 mph 23.0 mph N/A   Unknown
5:56 PM 45.0 °F 38.9 °F 23.0 °F 42% 30.23 in - NW 12.7 mph 23.0 mph N/A   Unknown
6:56 PM 42.1 °F 36.6 °F 23.0 °F 47% 30.25 in - NW 9.2 mph - N/A   Unknown
7:56 PM 39.0 °F 34.8 °F 21.9 °F 50% 30.28 in - Variable 5.8 mph - N/A   Unknown
8:56 PM 37.9 °F 32.7 °F 21.9 °F 53% 30.30 in - NW 6.9 mph - N/A   Unknown
9:56 PM 37.0 °F 33.3 °F 19.0 °F 48% 30.33 in - North 4.6 mph - N/A   Unknown
10:56 PM 33.1 °F - 18.0 °F 54% 30.36 in - Calm Calm - N/A   Unknown
11:56 PM 32.0 °F 28.7 °F 19.0 °F 59% 30.36 in - North 3.5 mph - N/A   Unknown